AV279 Weather Reports


time (UTC)temp
C
wind
direction
speed
KPH
gust
KPH
rain 1hr
cm
rain 24hr
cm
rain mn
cm
humidity
%
barometer
mb
20260509212819 12 45 3.2 6.4 0.00 0.00 0.00 71 1015.9
20260509211819 12 23 3.2 6.4 0.00 0.00 0.00 71 1015.9
20260509210841 13 45 4.8 8.0 0.00 0.00 0.00 71 1015.9
20260509205919 13 45 3.2 6.4 0.00 0.00 0.00 71 1015.9
20260509204819 13 23 3.2 6.4 0.00 0.00 0.00 71 1015.7
20260509203819 13 23 6.4 11.3 0.00 0.00 0.00 71 1015.7
20260509202839 13 23 6.4 12.9 0.00 0.00 0.00 72 1015.7
20260509201839 13 23 6.4 8.0 0.00 0.00 0.00 72 1015.4
20260509200819 13 45 4.8 8.0 0.00 0.00 0.00 72 1015.6
20260509195830 13 45 4.8 8.0 0.00 0.00 0.00 71 1015.6
20260509194819 13 23 4.8 11.3 0.00 0.00 0.00 71 1015.5
20260509193819 13 0 8.0 12.9 0.00 0.00 0.00 71 1015.5
20260509192819 13 23 6.4 11.3 0.00 0.00 0.00 71 1015.4
20260509191819 14 315 4.8 12.9 0.00 0.00 0.00 70 1015.4
20260509190819 14 45 4.8 9.7 0.00 0.00 0.00 69 1015.2
20260509190024 14 23 6.4 9.7 0.00 0.00 0.00 68 1015.2
20260509185150 15 45 8.0 12.9 0.00 0.00 0.00 68 1015.4
20260509184121 15 23 6.4 11.3 0.00 0.00 0.00 67 1015.3
20260509183139 15 45 9.7 14.5 0.00 0.00 0.00 67 1015.3
20260509182119 15 23 6.4 12.9 0.00 0.00 0.00 66 1015.2
20260509181140 15 23 4.8 8.0 0.00 0.00 0.00 65 1015.2
20260509180119 15 23 8.0 16.1 0.00 0.00 0.00 64 1015.2
20260509175140 16 45 11.3 16.1 0.00 0.00 0.00 65 1015.1
20260509174119 16 23 6.4 14.5 0.00 0.00 0.00 64 1015.0
20260509173119 16 0 11.3 27.4 0.00 0.00 0.00 64 1014.9
20260509172119 16 0 14.5 22.5 0.00 0.00 0.00 63 1015.0
20260509171130 16 45 8.0 14.5 0.00 0.00 0.00 62 1015.0
20260509170151 17 23 12.9 24.1 0.00 0.00 0.00 60 1015.0
20260509165130 17 45 11.3 25.7 0.00 0.00 0.00 61 1014.9
20260509164130 17 45 9.7 17.7 0.00 0.00 0.00 61 1015.1
20260509163316 17 23 8.0 14.5 0.00 0.00 0.00 61 1015.0
20260509162919 17 23 9.7 19.3 0.00 0.00 0.00 61 1015.0
20260509162132 17 0 8.0 14.5 0.00 0.00 0.00 61 1015.0
20260509161630 17 45 6.4 11.3 0.00 0.00 0.00 60 1015.1
20260509160629 17 23 8.0 16.1 0.00 0.00 0.00 58 1015.2
20260509155639 18 0 9.7 25.7 0.00 0.00 0.00 55 1015.1
20260509154711 18 23 14.5 19.3 0.00 0.00 0.00 54 1015.1
20260509153629 18 45 9.7 14.5 0.00 0.00 0.00 53 1015.2
20260509152619 18 45 14.5 19.3 0.00 0.00 0.00 54 1015.3
20260509151711 18 0 9.7 19.3 0.00 0.00 0.00 54 1015.3
20260509150618 18 23 14.5 24.1 0.00 0.00 0.00 53 1015.2
20260509145618 18 23 11.3 20.9 0.00 0.00 0.00 53 1015.0
20260509144640 18 23 14.5 27.4 0.00 0.00 0.00 54 1015.1
20260509143649 18 23 12.9 29.0 0.00 0.00 0.00 55 1015.1
20260509142629 19 338 14.5 24.1 0.00 0.00 0.00 55 1015.1
20260509141619 19 23 19.3 35.4 0.00 0.00 0.00 54 1015.4
20260509140619 19 23 11.3 19.3 0.00 0.00 0.00 53 1015.2
20260509135649 20 23 12.9 22.5 0.00 0.00 0.00 53 1015.2
20260509134619 20 23 8.0 17.7 0.00 0.00 0.00 52 1015.4
20260509133639 20 0 12.9 24.1 0.00 0.00 0.00 52 1015.4
20260509132639 21 45 14.5 30.6 0.00 0.00 0.00 50 1015.4
20260509131650 21 23 9.7 19.3 0.00 0.00 0.00 52 1015.4
20260509130620 20 23 12.9 22.5 0.00 0.00 0.00 52 1015.4
20260509125651 21 45 9.7 19.3 0.00 0.00 0.00 50 1015.4
20260509124639 21 45 17.7 30.6 0.00 0.00 0.00 49 1015.4
20260509123640 21 0 16.1 27.4 0.00 0.00 0.00 52 1015.6
20260509122629 21 0 12.9 20.9 0.00 0.00 0.00 52 1015.7
20260509121640 21 338 11.3 22.5 0.00 0.00 0.00 52 1015.8
20260509120618 21 45 11.3 20.9 0.00 0.00 0.00 50 1015.9
20260509115618 21 23 11.3 22.5 0.00 0.00 0.00 51 1015.9
20260509114629 21 0 12.9 22.5 0.00 0.00 0.00 50 1016.0
20260509113619 21 23 16.1 22.5 0.00 0.00 0.00 49 1016.2
20260509112618 21 45 6.4 12.9 0.00 0.00 0.00 50 1016.3
20260509111629 21 45 9.7 17.7 0.00 0.00 0.00 49 1016.5
20260509110621 22 23 11.3 16.1 0.00 0.00 0.00 45 1016.5
20260509105618 21 68 6.4 11.3 0.00 0.00 0.00 47 1016.5
20260509104640 21 23 8.0 17.7 0.00 0.00 0.00 48 1016.6
20260509103631 21 23 8.0 17.7 0.00 0.00 0.00 48 1016.8
20260509102618 20 90 9.7 17.7 0.00 0.00 0.00 48 1016.7
20260509101640 20 338 4.8 6.4 0.00 0.00 0.00 51 1016.7
20260509100639 20 45 11.3 17.7 0.00 0.00 0.00 49 1016.8
20260509095618 20 45 12.9 17.7 0.00 0.00 0.00 48 1016.8
20260509094631 20 158 4.8 8.0 0.00 0.00 0.00 51 1016.9
20260509093619 20 45 11.3 17.7 0.00 0.00 0.00 50 1016.9
20260509092618 20 23 11.3 19.3 0.00 0.00 0.00 51 1017.0
20260509091631 20 90 9.7 16.1 0.00 0.00 0.00 52 1017.0
20260509090631 19 45 8.0 17.7 0.00 0.00 0.00 52 1017.0
20260509085620 18 45 4.8 8.0 0.00 0.00 0.00 56 1017.0
20260509084650 18 45 6.4 9.7 0.00 0.00 0.00 56 1017.0
20260509083620 18 90 4.8 9.7 0.00 0.00 0.00 59 1017.0
20260509082620 18 45 6.4 8.0 0.00 0.00 0.00 60 1017.0
20260509081700 17 68 1.6 4.8 0.00 0.00 0.00 63 1017.1
20260509080630 17 0 6.4 12.9 0.00 0.00 0.00 64 1017.2
20260509075639 16 113 3.2 6.4 0.00 0.00 0.00 65 1017.1
20260509074620 16 45 6.4 11.3 0.00 0.00 0.00 66 1017.1
20260509073620 16 23 3.2 6.4 0.00 0.00 0.00 68 1017.2
20260509072620 15 45 3.2 4.8 0.00 0.00 0.00 68 1017.2
20260509071620 15 23 4.8 6.4 0.00 0.00 0.00 71 1017.2
20260509070641 14 23 4.8 8.0 0.00 0.00 0.00 71 1017.2
20260509065639 13 23 4.8 8.0 0.00 0.00 0.00 74 1017.2
20260509064620 12 113 4.8 11.3 0.00 0.00 0.00 76 1017.2
20260509063817 12 45 3.2 4.8 0.00 0.00 0.00 78 1017.2
20260509062620 11 23 4.8 6.4 0.00 0.00 0.00 79 1017.2
20260509061620 11 45 1.6 4.8 0.00 0.00 0.00 81 1017.2
20260509060620 10 0.0 0.0 0.00 0.00 0.00 81 1017.2
20260509055619 10 68 1.6 3.2 0.00 0.00 0.00 82 1017.1
20260509054620 10 45 1.6 3.2 0.00 0.00 0.00 83 1017.1
20260509053620 9 0.0 3.2 0.00 0.00 0.00 84 1017.1
20260509052620 9 45 1.6 1.6 0.00 0.00 0.00 85 1017.0
20260509051620 8 0.0 1.6 0.00 0.00 0.00 85 1016.9
20260509050631 8 68 1.6 3.2 0.00 0.00 0.00 86 1017.0
20260509045620 8 0.0 0.0 0.00 0.00 0.00 86 1016.9
20260509044640 8 90 1.6 3.2 0.00 0.00 0.00 86 1016.9
20260509043620 8 45 1.6 3.2 0.00 0.00 0.00 86 1016.8
20260509042619 8 68 1.6 3.2 0.00 0.00 0.00 86 1016.7
20260509041619 8 0.0 1.6 0.00 0.00 0.00 86 1016.6
20260509040620 8 113 1.6 4.8 0.00 0.00 0.00 87 1016.8
20260509035630 8 45 1.6 4.8 0.00 0.00 0.00 87 1016.8
20260509034620 8 0 1.6 3.2 0.00 0.00 0.00 86 1016.9
20260509033651 8 45 1.6 3.2 0.00 0.00 0.00 86 1016.9
20260509032630 8 68 3.2 6.4 0.00 0.00 0.00 86 1017.0
20260509031619 8 23 3.2 4.8 0.00 0.00 0.00 86 1017.1
20260509030652 8 23 3.2 4.8 0.00 0.00 0.00 86 1017.0
20260509025630 8 23 3.2 9.7 0.00 0.00 0.00 86 1017.0
20260509024619 8 23 3.2 4.8 0.00 0.00 0.00 86 1017.1
20260509023620 8 23 3.2 4.8 0.00 0.00 0.00 86 1017.0
20260509022630 8 23 3.2 4.8 0.00 0.00 0.00 86 1017.0
20260509021630 8 23 6.4 8.0 0.00 0.00 0.00 86 1016.9
20260509020630 9 0 1.6 3.2 0.00 0.00 0.00 86 1016.9
20260509015630 9 23 3.2 4.8 0.00 0.00 0.00 85 1017.0
20260509014630 9 23 1.6 4.8 0.00 0.00 0.00 85 1017.0
20260509013619 9 0.0 0.0 0.00 0.00 0.00 85 1017.1
20260509012619 9 23 1.6 3.2 0.00 0.00 0.00 85 1017.2
20260509011650 9 23 3.2 3.2 0.00 0.00 0.00 85 1017.2
20260509010650 9 23 3.2 4.8 0.00 0.00 0.00 85 1017.2
20260509005630 10 23 1.6 4.8 0.00 0.00 0.00 84 1017.2
20260509004650 10 45 3.2 4.8 0.00 0.00 0.00 84 1017.1
20260509003619 10 0 3.2 6.4 0.00 0.00 0.00 84 1017.1
20260509002619 10 23 3.2 4.8 0.00 0.00 0.00 84 1017.1
20260509001619 10 0 3.2 3.2 0.00 0.00 0.00 84 1017.1
20260509000619 10 0 1.6 3.2 0.00 0.00 0.00 83 1017.1
20260508235640 10 68 1.6 4.8 0.00 0.00 0.00 83 1017.1
20260508234620 10 45 1.6 4.8 0.00 0.00 0.00 83 1017.0
20260508233630 10 45 1.6 3.2 0.00 0.00 0.00 82 1017.1
20260508232640 10 23 1.6 3.2 0.00 0.00 0.00 82 1017.2
20260508231640 11 45 1.6 3.2 0.00 0.00 0.00 82 1017.2
20260508230620 11 45 1.6 3.2 0.00 0.00 0.00 81 1017.3
20260508225619 11 68 3.2 6.4 0.00 0.00 0.00 81 1017.4
20260508224630 11 23 3.2 6.4 0.00 0.00 0.00 81 1017.4
20260508223619 11 45 3.2 4.8 0.00 0.00 0.00 80 1017.3
20260508222630 11 68 3.2 4.8 0.00 0.00 0.00 80 1017.5
20260508221630 11 45 3.2 4.8 0.00 0.00 0.00 79 1017.3
20260508220620 12 68 3.2 4.8 0.00 0.00 0.00 79 1017.3
20260508215619 12 0 1.6 3.2 0.00 0.00 0.00 79 1017.3
20260508214639 12 45 3.2 4.8 0.00 0.00 0.00 78 1017.3